QPF
0.00 0.01 0.02 0.01 0.01 0.00 0.00 0.00 0.01 0.01 0.01 0.00 0.01 0.01 0.00 0.00 0.00 0.01 0.02 0.02 0.02 0.01 0.02 0.02 0.03 0.07 0.08 0.07 0.10 0.15 0.20 0.12 0.08 0.10 0.08 0.11 0.15 0.09 0.03 0.02 0.05 0.13 0.09
0.00 0.01 0.01 0.01 0.01 0.01 0.01 0.01 0.01 0.01 0.02 0.01 0.01 0.00 0.00 0.01 0.01 0.00 0.00 0.01 0.00 0.00 0.01 0.02 0.04 0.05 0.05 0.05 0.07 0.13 0.18 0.19 0.18 0.17 0.08 0.06 0.10 0.06 0.02 0.03 0.07 0.12 0.09
0.00 0.00 0.01 0.01 0.01 0.01 0.01 0.01 0.01 0.03 0.03 0.01 0.01 0.01 0.01 0.00 0.00 0.00 0.00 0.00 0.00 0.00 0.01 0.01 0.04 0.05 0.06 0.08 0.10 0.13 0.15 0.18 0.22 0.21 0.12 0.08 0.04 0.03 0.04 0.05 0.11 0.10 0.07
0.00 0.00 0.01 0.01 0.02 0.04 0.03 0.03 0.03 0.04 0.06 0.04 0.01 0.02 0.00 0.00 0.00 0.01 0.01 0.01 0.00 0.00 0.01 0.01 0.02 0.05 0.07 0.10 0.14 0.15 0.11 0.13 0.16 0.12 0.04 0.02 0.03 0.05 0.10 0.10 0.16 0.10 0.07
0.00 0.00 0.01 0.03 0.04 0.08 0.07 0.06 0.07 0.06 0.07 0.05 0.03 0.03 0.02 0.01 0.01 0.00 0.01 0.02 0.01 0.01 0.01 0.02 0.02 0.04 0.08 0.09 0.10 0.09 0.07 0.12 0.17 0.05 0.00 0.00 0.03 0.08 0.10 0.14 0.15 0.08 0.06
0.00 0.01 0.05 0.06 0.08 0.10 0.10 0.11 0.14 0.10 0.10 0.06 0.04 0.04 0.04 0.03 0.01 0.00 0.02 0.06 0.03 0.00 0.00 0.02 0.03 0.05 0.08 0.12 0.11 0.10 0.13 0.12 0.06 0.01 0.01 0.01 0.04 0.08 0.11 0.15 0.10 0.12 0.07
0.01 0.03 0.05 0.07 0.09 0.14 0.13 0.11 0.15 0.16 0.19 0.10 0.06 0.05 0.04 0.02 0.00 0.00 0.03 0.05 0.06 0.03 0.01 0.01 0.01 0.03 0.05 0.09 0.09 0.10 0.15 0.09 0.05 0.06 0.07 0.06 0.08 0.10 0.12 0.13 0.15 0.20 0.16
0.01 0.02 0.03 0.06 0.10 0.16 0.16 0.16 0.21 0.24 0.24 0.12 0.05 0.07 0.05 0.05 0.02 0.00 0.02 0.02 0.06 0.06 0.03 0.01 0.00 0.00 0.01 0.03 0.06 0.11 0.14 0.14 0.09 0.06 0.07 0.10 0.15 0.16 0.13 0.13 0.17 0.25 0.26
0.01 0.03 0.03 0.04 0.07 0.14 0.21 0.21 0.22 0.24 0.23 0.11 0.04 0.06 0.06 0.05 0.02 0.00 0.01 0.01 0.01 0.02 0.02 0.02 0.01 0.00 0.00 0.00 0.03 0.07 0.12 0.11 0.07 0.03 0.02 0.06 0.13 0.12 0.12 0.13 0.16 0.23 0.27
0.00 0.01 0.02 0.03 0.05 0.11 0.17 0.24 0.27 0.30 0.33 0.15 0.06 0.05 0.05 0.06 0.03 0.00 0.00 0.00 0.01 0.01 0.01 0.01 0.01 0.00 0.00 0.00 0.01 0.03 0.06 0.06 0.03 0.00 0.00 0.03 0.07 0.07 0.07 0.09 0.14 0.14 0.15
0.00 0.00 0.00 0.01 0.02 0.07 0.11 0.16 0.25 0.31 0.37 0.20 0.06 0.03 0.03 0.03 0.04 0.01 0.00 0.00 0.02 0.01 0.00 0.00 0.00 0.00 0.00 0.00 0.00 0.01 0.01 0.00 0.00 0.00 0.00 0.03 0.02 0.02 0.04 0.04 0.04 0.06 0.07
0.00 0.00 0.00 0.00 0.01 0.03 0.05 0.09 0.19 0.22 0.27 0.19 0.05 0.02 0.04 0.02 0.03 0.01 0.00 0.00 0.01 0.01 0.00 0.00 0.00 0.00 0.00 0.00 0.00 0.00 0.00 0.00 0.00 0.00 0.01 0.02 0.01 0.00 0.00 0.00 0.00 0.00 0.00
0.00 0.00 0.00 0.00 0.00 0.01 0.03 0.05 0.10 0.14 0.22 0.22 0.10 0.02 0.04 0.01 0.02 0.00 0.00 0.00 0.00 0.00 0.00 0.00 0.00 0.00 0.00 0.00 0.00 0.00 0.00 0.00 0.00 0.00 0.00 0.01 0.00 0.00 0.00 0.00 0.00 0.00 0.00
0.00 0.00 0.00 0.00 0.00 0.00 0.02 0.06 0.14 0.18 0.23 0.21 0.11 0.01 0.00 0.00 0.01 0.01 0.00 0.00 0.00 0.00 0.00 0.00 0.00 0.00 0.00 0.00 0.00 0.00 0.00 0.00 0.00 0.00 0.01 0.02 0.02 0.01 0.01 0.01 0.00 0.00 0.00
0.00 0.00 0.00 0.00 0.00 0.00 0.01 0.04 0.07 0.08 0.15 0.28 0.23 0.05 0.00 0.00 0.01 0.01 0.00 0.00 0.00 0.00 0.00 0.00 0.00 0.00 0.00 0.00 0.00 0.00 0.00 0.00 0.00 0.00 0.01 0.02 0.02 0.03 0.04 0.03 0.03 0.01 0.00
0.00 0.00 0.00 0.00 0.00 0.00 0.00 0.01 0.02 0.02 0.07 0.12 0.09 0.02 0.00 0.00 0.02 0.02 0.00 0.00 0.00 0.00 0.00 0.00 0.00 0.00 0.00 0.00 0.00 0.00 0.00 0.00 0.00 0.00 0.01 0.02 0.02 0.02 0.03 0.03 0.04 0.02 0.02
0.00 0.00 0.00 0.00 0.00 0.00 0.00 0.00 0.00 0.01 0.03 0.03 0.03 0.01 0.01 0.02 0.05 0.04 0.00 0.00 0.00 0.00 0.00 0.00 0.00 0.00 0.00 0.00 0.00 0.00 0.00 0.00 0.00 0.00 0.00 0.01 0.03 0.02 0.03 0.06 0.07 0.06 0.05
0.00 0.00 0.00 0.00 0.00 0.00 0.00 0.00 0.00 0.00 0.01 0.02 0.04 0.02 0.01 0.03 0.04 0.06 0.02 0.00 0.00 0.00 0.00 0.00 0.00 0.00 0.00 0.00 0.01 0.00 0.00 0.00 0.00 0.00 0.00 0.01 0.03 0.03 0.05 0.06 0.10 0.12 0.10
0.01 0.01 0.00 0.00 0.00 0.00 0.00 0.00 0.00 0.00 0.00 0.01 0.01 0.01 0.01 0.03 0.05 0.09 0.10 0.04 0.00 0.00 0.00 0.00 0.00 0.00 0.00 0.01 0.01 0.01 0.01 0.00 0.00 0.00 0.00 0.00 0.00 0.01 0.03 0.04 0.05 0.08 0.12
0.05 0.03 0.01 0.00 0.00 0.01 0.00 0.00 0.00 0.00 0.00 0.01 0.00 0.02 0.07 0.14 0.17 0.20 0.24 0.18 0.07 0.05 0.06 0.04 0.02 0.01 0.01 0.01 0.00 0.00 0.00 0.00 0.00 0.00 0.00 0.00 0.00 0.00 0.00 0.00 0.01 0.01 0.04
0.12 0.08 0.02 0.00 0.00 0.00 0.00 0.01 0.01 0.01 0.01 0.02 0.03 0.04 0.08 0.15 0.22 0.26 0.33 0.33 0.25 0.21 0.19 0.15 0.11 0.06 0.03 0.01 0.00 0.00 0.00 0.00 0.00 0.00 0.00 0.00 0.00 0.00 0.00 0.00 0.01 0.03 0.06
0.03 0.05 0.06 0.02 0.01 0.00 0.02 0.05 0.08 0.08 0.07 0.08 0.09 0.08 0.08 0.09 0.14 0.18 0.27 0.25 0.18 0.17 0.15 0.10 0.09 0.13 0.10 0.03 0.01 0.02 0.01 0.00 0.00 0.00 0.00 0.00 0.00 0.00 0.00 0.00 0.00 0.01 0.03
0.01 0.01 0.03 0.06 0.05 0.03 0.09 0.20 0.27 0.26 0.22 0.15 0.13 0.16 0.17 0.13 0.09 0.10 0.13 0.13 0.08 0.08 0.11 0.09 0.07 0.08 0.09 0.03 0.01 0.04 0.03 0.03 0.02 0.01 0.00 0.00 0.00 0.00 0.00 0.00 0.00 0.00 0.00
0.00 0.00 0.01 0.03 0.07 0.09 0.20 0.35 0.43 0.43 0.35 0.27 0.22 0.23 0.22 0.14 0.08 0.07 0.07 0.08 0.04 0.02 0.02 0.01 0.01 0.01 0.03 0.02 0.01 0.01 0.02 0.02 0.04 0.05 0.02 0.00 0.00 0.00 0.00 0.00 0.00 0.00 0.00
0.05 0.05 0.05 0.09 0.22 0.36 0.45 0.44 0.45 0.42 0.35 0.28 0.23 0.25 0.23 0.24 0.17 0.10 0.07 0.05 0.02 0.01 0.00 0.00 0.00 0.00 0.00 0.01 0.02 0.01 0.02 0.02 0.01 0.03 0.04 0.02 0.01 0.00 0.00 0.00 0.00 0.00 0.00
0.14 0.15 0.14 0.21 0.31 0.37 0.41 0.47 0.45 0.37 0.35 0.35 0.32 0.28 0.23 0.22 0.18 0.13 0.08 0.03 0.01 0.00 0.00 0.00 0.00 0.00 0.00 0.01 0.03 0.04 0.06 0.08 0.06 0.07 0.06 0.06 0.07 0.03 0.00 0.00 0.00 0.00 0.00
MSLP
1011.95 1011.88 1011.94 1012.12 1012.39 1012.71 1013.02 1013.28 1013.48 1013.62 1013.73 1013.83 1013.96 1014.14 1014.36 1014.60 1014.83 1015.01 1015.11 1015.12 1015.07 1014.97 1014.86 1014.77 1014.72 1014.73 1014.77 1014.84 1014.91 1014.98 1015.03 1015.06 1015.09 1015.12 1015.16 1015.21 1015.24 1015.26 1015.25 1015.19 1015.09 1014.98 1014.86
1011.79 1011.81 1011.94 1012.18 1012.50 1012.84 1013.15 1013.41 1013.60 1013.72 1013.80 1013.89 1014.02 1014.20 1014.42 1014.68 1014.92 1015.10 1015.22 1015.25 1015.21 1015.13 1015.03 1014.95 1014.91 1014.91 1014.95 1014.99 1015.04 1015.07 1015.09 1015.10 1015.12 1015.16 1015.22 1015.29 1015.36 1015.40 1015.39 1015.34 1015.24 1015.11 1015.00
1011.58 1011.69 1011.90 1012.21 1012.58 1012.96 1013.30 1013.57 1013.75 1013.86 1013.94 1014.01 1014.12 1014.29 1014.50 1014.74 1014.97 1015.15 1015.27 1015.30 1015.28 1015.22 1015.15 1015.10 1015.07 1015.08 1015.10 1015.12 1015.14 1015.13 1015.12 1015.11 1015.11 1015.15 1015.22 1015.31 1015.39 1015.45 1015.46 1015.42 1015.33 1015.22 1015.11
1011.34 1011.53 1011.81 1012.19 1012.62 1013.05 1013.42 1013.72 1013.93 1014.05 1014.13 1014.20 1014.29 1014.43 1014.62 1014.83 1015.03 1015.19 1015.30 1015.34 1015.34 1015.30 1015.26 1015.24 1015.23 1015.25 1015.27 1015.27 1015.26 1015.22 1015.17 1015.13 1015.12 1015.15 1015.21 1015.30 1015.40 1015.47 1015.50 1015.47 1015.41 1015.32 1015.24
1011.12 1011.35 1011.69 1012.13 1012.61 1013.08 1013.51 1013.85 1014.09 1014.25 1014.34 1014.42 1014.51 1014.63 1014.79 1014.97 1015.14 1015.28 1015.37 1015.42 1015.43 1015.42 1015.41 1015.42 1015.44 1015.47 1015.48 1015.47 1015.43 1015.37 1015.29 1015.22 1015.18 1015.19 1015.24 1015.33 1015.42 1015.49 1015.53 1015.53 1015.49 1015.43 1015.39
1010.94 1011.20 1011.57 1012.03 1012.55 1013.06 1013.53 1013.92 1014.21 1014.40 1014.53 1014.63 1014.73 1014.86 1015.00 1015.15 1015.30 1015.43 1015.51 1015.56 1015.59 1015.60 1015.63 1015.66 1015.70 1015.74 1015.75 1015.73 1015.67 1015.58 1015.47 1015.38 1015.31 1015.30 1015.33 1015.40 1015.48 1015.55 1015.59 1015.61 1015.60 1015.58 1015.58
1010.84 1011.09 1011.46 1011.93 1012.45 1012.98 1013.48 1013.90 1014.23 1014.47 1014.65 1014.78 1014.91 1015.05 1015.20 1015.35 1015.49 1015.61 1015.70 1015.77 1015.81 1015.85 1015.89 1015.94 1016.00 1016.03 1016.04 1016.01 1015.93 1015.82 1015.70 1015.59 1015.51 1015.47 1015.49 1015.53 1015.59 1015.66 1015.70 1015.73 1015.74 1015.76 1015.79
1010.83 1011.06 1011.40 1011.84 1012.34 1012.86 1013.36 1013.80 1014.15 1014.43 1014.65 1014.83 1014.99 1015.16 1015.33 1015.50 1015.66 1015.79 1015.90 1015.98 1016.05 1016.11 1016.17 1016.22 1016.28 1016.30 1016.30 1016.26 1016.17 1016.05 1015.92 1015.81 1015.72 1015.67 1015.67 1015.70 1015.75 1015.80 1015.84 1015.88 1015.91 1015.95 1016.00
1010.91 1011.10 1011.39 1011.78 1012.24 1012.72 1013.19 1013.62 1013.98 1014.28 1014.53 1014.74 1014.94 1015.15 1015.35 1015.55 1015.74 1015.90 1016.04 1016.15 1016.24 1016.31 1016.38 1016.43 1016.47 1016.49 1016.47 1016.41 1016.32 1016.20 1016.08 1015.97 1015.89 1015.84 1015.84 1015.86 1015.91 1015.95 1016.00 1016.03 1016.07 1016.12 1016.18
1011.04 1011.19 1011.43 1011.77 1012.16 1012.59 1013.02 1013.41 1013.75 1014.05 1014.31 1014.54 1014.77 1015.00 1015.24 1015.47 1015.69 1015.89 1016.06 1016.20 1016.32 1016.41 1016.47 1016.52 1016.54 1016.54 1016.50 1016.43 1016.34 1016.23 1016.12 1016.04 1015.98 1015.96 1015.96 1016.00 1016.04 1016.09 1016.14 1016.17 1016.21 1016.25 1016.30
1011.15 1011.29 1011.50 1011.78 1012.12 1012.49 1012.86 1013.21 1013.52 1013.79 1014.04 1014.28 1014.51 1014.75 1015.01 1015.26 1015.51 1015.74 1015.95 1016.12 1016.26 1016.36 1016.43 1016.46 1016.47 1016.44 1016.39 1016.32 1016.23 1016.14 1016.06 1016.01 1015.98 1015.99 1016.03 1016.08 1016.14 1016.20 1016.25 1016.28 1016.31 1016.34 1016.37
1011.20 1011.34 1011.54 1011.80 1012.11 1012.43 1012.75 1013.05 1013.32 1013.57 1013.79 1014.00 1014.22 1014.46 1014.71 1014.97 1015.23 1015.49 1015.71 1015.91 1016.07 1016.19 1016.26 1016.30 1016.29 1016.25 1016.19 1016.11 1016.04 1015.97 1015.93 1015.91 1015.93 1015.98 1016.05 1016.13 1016.21 1016.28 1016.33 1016.37 1016.38 1016.39 1016.39
1011.14 1011.31 1011.53 1011.80 1012.09 1012.39 1012.68 1012.95 1013.19 1013.40 1013.59 1013.77 1013.96 1014.17 1014.40 1014.65 1014.91 1015.17 1015.42 1015.63 1015.81 1015.94 1016.03 1016.07 1016.06 1016.03 1015.97 1015.90 1015.84 1015.80 1015.79 1015.81 1015.87 1015.95 1016.05 1016.16 1016.26 1016.34 1016.40 1016.43 1016.44 1016.43 1016.40
1010.96 1011.17 1011.43 1011.72 1012.03 1012.34 1012.63 1012.90 1013.12 1013.31 1013.47 1013.63 1013.78 1013.96 1014.15 1014.37 1014.62 1014.87 1015.12 1015.35 1015.55 1015.70 1015.80 1015.86 1015.87 1015.84 1015.80 1015.75 1015.71 1015.69 1015.71 1015.76 1015.84 1015.95 1016.07 1016.19 1016.30 1016.39 1016.46 1016.49 1016.49 1016.46 1016.41
1010.66 1010.92 1011.22 1011.56 1011.90 1012.24 1012.56 1012.84 1013.08 1013.27 1013.43 1013.56 1013.69 1013.83 1013.99 1014.18 1014.40 1014.63 1014.88 1015.12 1015.34 1015.51 1015.64 1015.72 1015.76 1015.76 1015.74 1015.71 1015.70 1015.70 1015.74 1015.80 1015.89 1016.00 1016.12 1016.24 1016.35 1016.44 1016.50 1016.54 1016.53 1016.50 1016.45
1010.29 1010.57 1010.91 1011.28 1011.66 1012.05 1012.41 1012.73 1013.01 1013.23 1013.41 1013.54 1013.66 1013.78 1013.92 1014.08 1014.27 1014.50 1014.74 1014.98 1015.22 1015.42 1015.58 1015.69 1015.76 1015.80 1015.81 1015.81 1015.82 1015.84 1015.88 1015.94 1016.02 1016.11 1016.22 1016.32 1016.41 1016.48 1016.54 1016.57 1016.57 1016.54 1016.50
1009.91 1010.18 1010.51 1010.90 1011.31 1011.73 1012.14 1012.52 1012.85 1013.12 1013.34 1013.51 1013.65 1013.78 1013.90 1014.05 1014.23 1014.44 1014.68 1014.93 1015.18 1015.41 1015.60 1015.75 1015.86 1015.94 1015.98 1016.01 1016.04 1016.06 1016.10 1016.14 1016.20 1016.26 1016.32 1016.38 1016.45 1016.50 1016.54 1016.57 1016.58 1016.57 1016.55
1009.59 1009.80 1010.09 1010.45 1010.86 1011.30 1011.75 1012.18 1012.57 1012.91 1013.20 1013.42 1013.60 1013.75 1013.89 1014.04 1014.22 1014.43 1014.66 1014.92 1015.18 1015.43 1015.66 1015.85 1016.00 1016.11 1016.19 1016.25 1016.29 1016.32 1016.34 1016.36 1016.38 1016.39 1016.41 1016.43 1016.45 1016.48 1016.51 1016.53 1016.56 1016.57 1016.58
1009.36 1009.47 1009.67 1009.97 1010.35 1010.78 1011.24 1011.71 1012.17 1012.58 1012.94 1013.23 1013.47 1013.66 1013.84 1014.01 1014.19 1014.41 1014.65 1014.91 1015.18 1015.45 1015.70 1015.92 1016.10 1016.25 1016.37 1016.45 1016.51 1016.54 1016.55 1016.54 1016.52 1016.49 1016.45 1016.43 1016.41 1016.41 1016.43 1016.45 1016.49 1016.54 1016.58
1009.25 1009.23 1009.32 1009.52 1009.83 1010.22 1010.68 1011.18 1011.68 1012.15 1012.58 1012.95 1013.25 1013.50 1013.72 1013.92 1014.12 1014.34 1014.58 1014.84 1015.12 1015.40 1015.66 1015.91 1016.13 1016.31 1016.45 1016.56 1016.63 1016.67 1016.67 1016.64 1016.59 1016.52 1016.44 1016.38 1016.33 1016.31 1016.31 1016.34 1016.40 1016.47 1016.56
1009.26 1009.10 1009.06 1009.14 1009.36 1009.70 1010.14 1010.64 1011.17 1011.70 1012.19 1012.62 1012.99 1013.29 1013.54 1013.77 1013.98 1014.20 1014.44 1014.70 1014.97 1015.25 1015.53 1015.79 1016.03 1016.24 1016.41 1016.55 1016.64 1016.69 1016.69 1016.65 1016.58 1016.49 1016.39 1016.30 1016.23 1016.19 1016.19 1016.23 1016.30 1016.39 1016.51
1009.38 1009.08 1008.91 1008.89 1009.02 1009.30 1009.70 1010.19 1010.74 1011.30 1011.84 1012.32 1012.72 1013.06 1013.34 1013.58 1013.80 1014.01 1014.24 1014.48 1014.75 1015.02 1015.30 1015.57 1015.83 1016.06 1016.26 1016.42 1016.54 1016.61 1016.62 1016.59 1016.52 1016.42 1016.31 1016.21 1016.13 1016.09 1016.09 1016.13 1016.21 1016.32 1016.45
1009.56 1009.17 1008.90 1008.79 1008.85 1009.07 1009.44 1009.93 1010.48 1011.05 1011.61 1012.11 1012.54 1012.89 1013.17 1013.40 1013.60 1013.80 1014.00 1014.22 1014.46 1014.72 1015.00 1015.27 1015.54 1015.80 1016.02 1016.22 1016.36 1016.45 1016.49 1016.47 1016.42 1016.33 1016.23 1016.13 1016.06 1016.02 1016.02 1016.06 1016.14 1016.25 1016.40
1009.81 1009.35 1009.03 1008.87 1008.88 1009.07 1009.42 1009.89 1010.44 1011.01 1011.56 1012.06 1012.47 1012.81 1013.06 1013.27 1013.43 1013.59 1013.76 1013.94 1014.16 1014.40 1014.67 1014.94 1015.22 1015.50 1015.75 1015.96 1016.14 1016.26 1016.33 1016.34 1016.31 1016.24 1016.16 1016.08 1016.01 1015.98 1015.98 1016.02 1016.10 1016.20 1016.34
1010.11 1009.63 1009.29 1009.11 1009.12 1009.30 1009.64 1010.10 1010.63 1011.19 1011.71 1012.18 1012.56 1012.84 1013.05 1013.20 1013.32 1013.42 1013.54 1013.69 1013.87 1014.09 1014.35 1014.62 1014.91 1015.19 1015.46 1015.71 1015.91 1016.06 1016.15 1016.20 1016.19 1016.15 1016.09 1016.03 1015.98 1015.95 1015.96 1015.99 1016.05 1016.15 1016.27
1010.46 1010.01 1009.69 1009.52 1009.54 1009.73 1010.07 1010.52 1011.03 1011.55 1012.04 1012.44 1012.76 1012.98 1013.12 1013.20 1013.25 1013.30 1013.36 1013.47 1013.62 1013.82 1014.06 1014.33 1014.62 1014.91 1015.20 1015.46 1015.68 1015.85 1015.97 1016.04 1016.06 1016.05 1016.01 1015.97 1015.93 1015.91 1015.91 1015.94 1015.98 1016.06 1016.16
Thickness
5814 5813 5804 5801 5799 5796 5794 5792 5789 5785 5781 5778 5776 5773 5771 5770 5768 5767 5765 5764 5764 5763 5763 5763 5764 5764 5765 5766 5766 5766 5767 5768 5769 5769 5770 5771 5772 5774 5776 5778 5781 5784 5783
5819 5814 5805 5802 5799 5797 5794 5792 5789 5786 5783 5779 5776 5773 5771 5769 5768 5767 5765 5764 5763 5762 5762 5761 5761 5761 5762 5763 5764 5765 5765 5765 5764 5765 5766 5768 5768 5770 5772 5774 5777 5780 5780
5818 5814 5806 5802 5799 5796 5794 5792 5790 5787 5784 5781 5777 5774 5772 5769 5768 5767 5765 5764 5763 5762 5762 5761 5760 5760 5760 5761 5761 5762 5762 5762 5761 5761 5764 5768 5768 5767 5768 5770 5772 5774 5775
5818 5814 5808 5802 5799 5796 5794 5793 5791 5788 5786 5782 5779 5775 5772 5770 5768 5766 5764 5763 5761 5761 5760 5760 5759 5759 5758 5759 5759 5759 5759 5759 5758 5759 5765 5767 5768 5764 5765 5766 5768 5769 5771
5817 5814 5808 5802 5798 5796 5794 5793 5791 5789 5787 5784 5781 5777 5774 5771 5768 5766 5764 5762 5760 5759 5758 5758 5757 5757 5757 5757 5758 5758 5758 5757 5757 5758 5762 5763 5764 5762 5762 5764 5765 5766 5766
5816 5813 5808 5802 5798 5796 5794 5793 5791 5789 5787 5785 5782 5779 5775 5772 5769 5767 5765 5763 5761 5758 5757 5756 5756 5755 5755 5756 5757 5758 5758 5758 5757 5759 5760 5763 5764 5760 5761 5762 5762 5762 5763
5815 5812 5807 5801 5798 5796 5794 5793 5791 5790 5788 5786 5782 5779 5776 5773 5770 5768 5766 5764 5762 5759 5757 5756 5756 5755 5754 5754 5755 5756 5757 5758 5762 5760 5760 5761 5760 5759 5760 5760 5761 5760 5760
5815 5811 5807 5799 5797 5796 5794 5793 5792 5790 5789 5786 5783 5780 5777 5775 5772 5769 5767 5765 5762 5759 5757 5755 5754 5754 5754 5753 5754 5754 5755 5757 5761 5762 5761 5760 5757 5757 5758 5758 5759 5759 5759
5815 5812 5808 5804 5799 5795 5794 5792 5791 5790 5787 5785 5783 5781 5778 5776 5773 5770 5768 5765 5762 5760 5757 5755 5753 5753 5752 5752 5753 5753 5754 5756 5760 5761 5761 5759 5757 5756 5757 5757 5757 5757 5757
5814 5811 5809 5807 5804 5800 5795 5792 5789 5788 5786 5783 5781 5780 5777 5776 5773 5770 5768 5765 5763 5760 5757 5755 5753 5752 5752 5751 5752 5752 5754 5756 5759 5760 5761 5758 5755 5756 5757 5757 5756 5755 5755
5810 5811 5809 5806 5803 5799 5796 5793 5789 5786 5784 5782 5780 5778 5776 5778 5776 5772 5769 5765 5763 5759 5756 5754 5753 5751 5751 5751 5751 5751 5754 5759 5758 5760 5758 5754 5754 5755 5755 5755 5755 5754 5754
5806 5807 5809 5805 5802 5798 5796 5793 5789 5787 5784 5784 5783 5779 5779 5781 5779 5775 5766 5765 5763 5760 5756 5754 5752 5752 5754 5757 5753 5752 5757 5757 5759 5760 5758 5752 5752 5754 5755 5755 5755 5754 5754
5808 5805 5805 5804 5801 5799 5794 5792 5789 5787 5784 5783 5782 5780 5779 5779 5776 5774 5770 5766 5764 5761 5762 5755 5756 5759 5759 5757 5756 5756 5753 5756 5757 5757 5756 5751 5751 5751 5753 5754 5755 5755 5754
5809 5806 5804 5802 5800 5797 5794 5789 5786 5784 5782 5781 5780 5781 5779 5777 5777 5775 5771 5770 5767 5764 5761 5762 5761 5760 5761 5759 5757 5756 5753 5752 5752 5752 5751 5748 5748 5749 5751 5753 5753 5754 5754
5807 5805 5803 5800 5798 5795 5792 5786 5783 5781 5780 5777 5775 5777 5777 5775 5774 5772 5770 5766 5766 5763 5760 5758 5761 5761 5760 5760 5757 5755 5755 5750 5748 5746 5746 5744 5745 5746 5748 5751 5751 5751 5752
5807 5806 5805 5800 5796 5793 5789 5785 5783 5781 5777 5775 5774 5774 5775 5772 5771 5768 5768 5764 5764 5761 5760 5758 5759 5756 5756 5755 5754 5751 5749 5748 5746 5743 5743 5742 5741 5742 5744 5746 5747 5748 5748
5809 5807 5804 5799 5796 5792 5789 5786 5783 5779 5775 5773 5772 5772 5770 5769 5766 5765 5765 5763 5761 5758 5757 5756 5756 5754 5751 5749 5747 5747 5746 5743 5742 5741 5739 5737 5737 5736 5738 5739 5742 5743 5744
5806 5805 5802 5796 5793 5790 5786 5783 5781 5777 5773 5770 5767 5766 5766 5765 5763 5761 5759 5759 5757 5756 5754 5752 5751 5749 5747 5745 5743 5742 5740 5738 5737 5735 5735 5734 5731 5732 5731 5732 5734 5737 5738
5800 5799 5798 5795 5791 5788 5784 5781 5778 5775 5770 5767 5764 5763 5763 5762 5759 5756 5753 5753 5752 5751 5750 5749 5747 5746 5744 5740 5739 5736 5736 5735 5734 5731 5733 5730 5726 5725 5725 5725 5727 5730 5732
5794 5794 5793 5791 5788 5786 5781 5778 5773 5770 5766 5764 5761 5758 5758 5757 5754 5752 5749 5748 5747 5745 5743 5743 5742 5740 5739 5736 5735 5733 5733 5732 5731 5729 5727 5724 5723 5721 5720 5721 5723 5723 5724
5785 5785 5788 5787 5784 5781 5777 5772 5766 5763 5761 5759 5756 5753 5750 5750 5749 5746 5745 5743 5741 5739 5737 5737 5736 5733 5731 5733 5728 5725 5728 5727 5728 5727 5724 5721 5719 5716 5715 5714 5716 5717 5718
5782 5783 5784 5784 5784 5780 5776 5773 5768 5763 5760 5756 5751 5747 5744 5745 5745 5744 5741 5739 5738 5736 5735 5734 5730 5726 5725 5724 5721 5716 5715 5719 5719 5722 5721 5717 5716 5713 5713 5711 5713 5712 5715
5774 5780 5782 5783 5782 5778 5774 5770 5763 5757 5752 5747 5743 5742 5740 5739 5741 5740 5739 5738 5737 5735 5731 5729 5726 5721 5718 5718 5719 5714 5709 5709 5715 5717 5717 5715 5712 5710 5709 5709 5710 5709 5710
5760 5771 5777 5777 5775 5771 5767 5761 5756 5751 5745 5743 5742 5738 5736 5735 5735 5736 5736 5734 5733 5732 5729 5728 5726 5723 5718 5715 5715 5713 5715 5714 5705 5705 5709 5712 5711 5707 5706 5705 5704 5708 5707
5746 5754 5761 5762 5760 5759 5755 5751 5747 5742 5738 5735 5733 5731 5730 5730 5730 5729 5730 5729 5729 5728 5726 5724 5721 5719 5717 5713 5710 5708 5707 5705 5703 5700 5698 5702 5702 5702 5702 5702 5702 5702 5703
5734 5739 5744 5745 5744 5745 5744 5742 5740 5735 5732 5725 5719 5717 5719 5719 5721 5721 5722 5724 5725 5724 5723 5720 5716 5713 5711 5709 5705 5703 5701 5697 5696 5694 5691 5692 5692 5695 5697 5697 5697 5698 5698